SCP
0 0 0 0 0 0 0 0 0 0 0 0 0 0 0 0 0 0 0 0 0 0 0 0 0 0 0 0 0 0 0 0 0 0 0 0 0 0 0 0 0 0 0
0 0 0 0 0 0 0 0 0 0 0 0 0 0 0 0 0 0 0 0 0 0 0 0 0 0 0 0 0 0 0 0 0 0 0 0 0 0 0 0 0 0 0
0 0 0 0 0 0 0 0 0 0 0 0 0 0 0 0 0 0 0 0 0 0 0 0 0 0 0 0 0 0 0 0 0 0 0 0 0 0 0 0 0 0 0
0 0 0 0 0 0 0 0 0 0 0 0 0 0 0 0 0 0 0 0 0 0 0 0 0 0 0 0 0 0 0 0 0 0 0 0 0 0 0 0 0 0 0
0 0 0 0 0 0 0 0 0 0 0 0 0 0 0 0 0 0 0 0 0 0 0 0 0 0 0 0 0 0 0 0 0 0 0 0 0 0 0 0 0 0 0
0 0 0 0 0 0 0 0 0 0 0 0 0 0 0 0 0 0 0 0 0 0 0 0 0 0 0 0 0 0 0 0 0 0 0 0 0 0 0 0 0 0 0
0 0 0 0 0 0 0 0 0 0 0 0 0 0 0 0 0 0 0 0 0 0 0 0 0 0 0 0 0 0 0 0 0 0 0 0 0 0 0 0 0 0 0
0 0 0 0 0 0 0 0 0 0 0 0 0 0 0 0 0 0 0 0 0 0 0 0 0 0 0 0 0 0 0 0 0 0 0 0 0 0 0 0 0 0 0
0 0 0 0 0 0 0 0 0 0 0 0 0 0 0 0 0 0 0 0 0 0 0 0 0 0 0 0 0 0 0 0 0 0 0 0 0 0 0 0 0 0 0
0 0 0 0 0 0 0 0 0 0 0 0 0 0 0 0 0 0 0 0 0 0 0 0 0 0 0 0 0 0 0 0 0 0 0 0 0 0 0 0 0 0 0
0 0 0 0 0 0 0 0 0 0 0 0 0 0 0 0 0 0 0 0 0 0 0 0 0 0 0 0 0 0 0 0 0 0 0 0 0 0 0 0 0 0 0
0 0 0 0 0 0 0 0 0 0 0 0 0 0 0 0 0 0 0 0 0 0 0 -0 -0 0 0 0 0 0 0 0 0 0 0 0 0 0 0 0 0 0 0
0 0 -0 0 0 0 0 0 0 0 0 0 0 0 0 0 0 0 0 0 0 0 0 -0 -0 0 0 0 0 0 0 0 0 0 0 0 0 0 0 0 0 0 0
0 0 -0 -0 0 0 0 0 0 0 0 0 0 0 0 0 0 0 0 0 0 0 0 -0 -0 -0 0 0 0 0 0 0 0 0 0 0 0 0 0 0 0 0 0
0 0 0 0 0 0 0 0 0 0 0 0 0 0 0 0 0 0 0 0 0 0 0 0 0 0 0 0 0 0 0 0 0 0 0 0 0 0 0 0 0 0 0
0 0 0 0 0 0 0 0 0 0 0 0 0 0 0 0 0 0 0 0 0 0 0 0 0 0 0 0 0 0 0 0 0 0 0 0 0 0 0 0 0 0 0
0 0 0 0 0 0 0 0 0 0 0 0 0 0 0 0 0 0 0 0 0 0 0 0 0 0 0 0 0 0 0 0 0 0 0 0 0 0 0 0 0 0 0
0 0 0 0 0 0 0 0 0 0 0 0 0 0 0 0 0 0 0 0 0 0 0 0 0 0 0 0 0 0 0 0 0 0 0 0 0 0 0 0 0 0 0
0 0 0 0 0 0 0 0 0 0 0 0 0 0 0 0 0 0 0 0 0 0 0 0 0 0 0 0 0 0 0 0 0 0 0 0 0 0 0 0 0 0 0
0 0 0 0 0 0 0 0 0 0 0 0 0 0 0 0 0 0 0 0 0 0 0 0 0 0 0 0 0 0 0 0 0 0 0 0 0 0 0 0 0 0 0
0 0 0 0 0 0 0 0 0 0 0 0 0 0 0 0 0 0 0 0 0 0 0 0 0 0 0 0 0 0 0 0 0 0 0 0 0 0 0 0 0 0 0
0 0 0 0 0 0 0 0 0 0 0 0 0 0 0 0 0 0 0 0 0 0 0 0 0 0 0 0 0 0 0 0 0 0 0 0 0 0 0 0 0 0 0
0 0 0 0 0 0 0 0 0 0 0 0 0 0 0 0 0 0 0 0 0 0 0 0 0 0 0 0 0 0 0 0 0 0 0 0 0 0 0 0 0 0 0
0 0 0 0 0 0 0 0 0 0 0 0 0 0 0 0 0 0 0 0 0 0 0 0 0 0 0 0 0 0 0 0 0 0 0 0 0 0 0 0 0 0 0
0 0 0 0 0 0 0 0 0 0 0 0 0 0 0 0 0 0 0 0 0 0 0 0 0 0 0 0 0 0 0 0 0 0 0 0 0 0 0 0 0 0 0
0 0 0 0 0 0 0 0 0 0 0 0 0 0 0 0 0 0 0 0 0 0 0 0 0 0 0 0 0 0 0 0 0 0 0 0 0 0 0 0 0 0 0
Wind_Speed_500mb
47 45 45 40 38 36 33 29 26 24 24 22 21 20 19 17 15 15 16 15 17 15 15 14 11 10 6 7 5 9 30 29 18 12 16 12 12 16 14 18 16 18 17
55 52 47 43 40 39 35 30 26 23 23 22 20 19 17 16 14 12 12 13 14 15 15 15 13 13 10 9 11 7 17 29 27 24 24 20 13 16 16 16 17 16 16
51 51 48 46 42 39 35 32 28 26 24 23 21 19 19 17 15 13 11 11 12 14 16 15 14 13 13 11 10 13 19 28 29 27 27 20 14 20 16 13 14 16 12
42 51 46 47 42 40 35 29 28 27 25 23 21 19 18 17 15 14 12 11 10 12 13 13 16 16 15 14 14 20 29 26 24 21 26 16 11 12 11 11 12 15 16
43 48 44 44 42 36 35 31 28 26 24 23 22 20 18 17 15 14 13 11 11 12 11 11 14 16 15 16 19 31 30 28 27 24 15 19 11 8 7 10 12 15 12
44 41 40 41 35 33 32 29 27 26 23 22 21 20 19 18 16 15 13 12 11 11 10 12 13 15 15 16 21 33 25 26 31 27 22 21 23 22 13 11 10 11 12
46 45 41 36 33 33 30 26 25 24 23 22 22 21 19 18 17 17 16 15 14 13 13 12 12 12 12 14 19 30 27 22 27 30 24 24 24 25 20 13 16 14 14
44 42 36 32 29 29 28 23 22 20 20 21 21 20 20 19 20 22 21 20 18 17 16 14 12 11 10 11 15 25 26 22 22 22 21 23 26 26 25 21 19 18 16
38 41 35 31 24 29 25 18 18 18 19 20 21 21 22 23 26 24 24 22 21 20 17 15 12 10 8 9 13 20 24 21 21 18 15 17 20 17 14 17 22 24 23
28 33 32 26 27 27 17 13 15 17 18 21 23 26 22 23 22 20 20 23 23 23 19 18 15 9 5 7 12 19 23 18 18 15 9 11 12 17 14 14 23 26 27
30 14 22 23 23 19 13 12 15 18 22 23 24 20 15 18 17 18 16 18 20 22 21 20 19 14 8 5 1 10 15 16 21 18 11 10 12 18 22 16 17 29 30
34 11 16 10 14 10 9 9 12 17 24 21 19 17 12 11 12 14 13 15 16 18 17 17 20 16 10 5 4 3 7 11 17 17 15 14 19 22 26 25 19 24 33
25 19 18 4 10 6 11 5 10 16 15 13 8 8 6 6 6 9 7 9 11 15 18 19 22 21 16 13 17 15 13 13 18 20 18 15 21 23 25 23 22 21 26
35 17 18 5 6 17 11 11 8 9 7 5 5 2 4 6 3 4 5 11 11 15 18 22 27 24 21 21 20 18 13 14 25 24 21 22 25 24 21 19 20 18 22
43 34 24 18 6 21 16 13 9 9 8 6 9 9 11 13 18 15 16 19 18 19 19 22 27 28 28 27 27 25 19 13 16 30 30 28 29 26 19 15 21 23 15
42 30 22 19 17 19 18 16 12 13 17 16 16 15 21 27 24 24 25 25 27 25 24 27 30 33 33 34 34 34 33 33 21 19 27 29 28 27 19 12 17 27 25
40 35 23 20 25 25 23 14 10 11 14 15 24 26 30 34 34 34 34 33 31 35 38 35 34 36 38 39 38 31 25 21 20 19 18 21 25 22 20 15 15 23 31
39 35 21 23 20 29 36 32 33 34 39 44 34 35 39 39 40 43 44 43 49 44 38 37 34 36 43 44 40 32 26 24 26 28 28 25 22 22 22 22 19 19 26
34 30 24 15 8 5 11 31 28 27 30 35 40 39 41 45 47 50 51 55 49 43 40 40 39 40 44 44 42 40 34 33 30 31 29 29 30 28 23 20 24 20 21
23 21 22 13 8 9 18 26 31 36 39 42 44 51 56 56 56 55 53 54 48 40 39 48 49 44 43 44 43 43 41 38 36 31 35 34 31 32 30 25 23 24 25
28 16 16 16 11 19 33 41 47 51 50 46 48 51 53 53 35 40 39 34 46 57 62 56 53 45 42 45 44 47 47 44 45 47 42 41 40 41 36 30 25 21 24
12 20 30 34 34 33 40 41 41 43 46 51 54 55 58 58 61 65 54 53 55 52 66 61 56 51 48 41 48 43 49 52 52 51 47 48 44 36 35 39 33 24 20
11 14 16 25 28 31 28 35 44 49 55 59 61 63 63 63 70 59 59 51 54 51 56 59 60 60 54 44 48 48 27 28 27 26 25 40 36 39 33 30 32 28 21
16 18 23 26 29 35 47 53 56 52 53 55 58 60 61 60 63 67 69 69 69 61 53 57 60 62 58 53 52 55 55 44 28 16 9 11 29 28 35 30 29 30 26
20 22 30 36 43 48 55 55 58 63 64 64 67 67 65 60 56 57 62 65 68 70 64 57 63 63 65 59 54 55 59 59 56 42 36 26 19 22 28 26 24 34 30
29 36 41 43 46 51 53 51 54 58 61 63 65 67 69 73 71 65 59 57 54 51 53 66 67 68 70 67 60 53 62 58 58 50 40 41 23 22 23 29 25 32 27
Wind_Direction_500mb
173 168 173 161 151 144 146 140 138 139 138 135 132 129 128 126 122 116 102 92 80 85 91 93 87 79 78 75 88 191 213 214 212 179 145 152 162 148 129 101 112 108 108
165 170 172 159 154 150 148 144 142 137 134 131 130 126 121 118 110 99 91 81 68 60 62 80 88 87 82 69 83 105 170 187 189 179 173 172 179 156 148 138 127 123 108
168 170 168 158 154 149 146 143 141 139 134 133 131 127 122 116 111 102 87 70 56 43 41 46 65 74 88 96 96 116 142 165 173 174 182 168 179 175 175 169 140 120 131
171 171 164 155 154 149 144 142 141 140 139 134 129 125 120 116 112 106 97 83 69 57 49 41 53 66 76 88 112 125 132 144 156 177 188 191 179 172 181 192 152 142 123
169 168 161 155 156 149 145 143 145 142 139 137 134 129 124 118 109 101 93 81 70 58 56 53 60 67 77 91 118 131 135 154 163 182 181 211 216 191 192 196 187 168 157
162 160 157 158 154 150 148 150 147 145 145 142 137 130 122 118 111 103 96 89 76 63 50 48 54 65 79 99 129 146 137 148 154 173 183 202 227 247 238 213 196 195 189
159 157 160 161 154 149 150 150 150 150 147 142 137 131 125 118 107 99 91 79 70 60 54 45 44 57 74 101 132 158 156 157 163 177 178 192 223 242 232 225 207 196 198
160 155 163 164 163 155 154 155 151 151 148 142 134 126 118 110 101 94 80 71 64 54 47 43 42 50 64 96 133 163 175 186 187 200 203 209 230 246 252 228 212 202 202
157 159 166 175 172 167 171 162 153 155 150 138 129 121 119 104 98 85 70 61 57 51 41 34 30 40 67 100 140 160 183 189 194 202 213 218 235 257 260 237 219 211 208
157 166 168 173 175 180 186 166 162 156 143 137 132 118 117 110 103 76 68 61 54 39 32 30 27 35 45 102 149 156 183 187 194 203 218 239 248 276 267 256 227 217 214
153 163 181 182 190 183 186 191 173 158 145 134 132 130 117 108 98 70 62 58 47 41 43 34 23 14 21 32 171 184 179 190 196 201 218 258 263 279 293 273 245 226 220
157 162 175 177 209 220 216 199 175 158 144 128 133 133 121 91 82 65 46 37 34 27 32 22 13 356 359 353 2 294 225 238 217 217 226 256 266 272 284 287 258 230 223
158 164 145 334 181 158 114 129 154 148 159 156 135 134 103 59 63 55 21 6 9 1 2 0 358 346 332 317 332 317 265 250 237 241 237 251 264 266 274 280 265 238 223
178 185 161 178 195 156 137 106 131 151 166 178 203 196 13 312 282 299 314 325 331 336 337 337 335 335 322 318 323 305 290 262 239 245 253 260 272 282 287 268 242 240 225
181 176 178 191 217 189 165 163 203 221 225 255 273 281 299 290 284 294 304 302 302 310 314 316 315 315 313 311 307 306 301 293 269 259 263 264 270 282 292 267 233 236 234
180 180 173 183 181 181 176 204 234 240 235 238 262 271 285 284 287 295 299 295 298 299 302 306 304 301 301 300 298 295 293 294 292 279 269 271 275 278 274 265 241 226 232
191 176 163 188 192 195 188 173 195 225 245 244 267 272 274 280 288 288 286 289 294 296 298 300 297 284 285 288 287 285 272 269 281 288 289 283 282 287 275 252 235 233 229
187 182 177 193 189 212 211 222 225 235 248 252 250 263 264 271 277 282 279 282 293 284 278 287 301 280 278 282 283 283 269 267 276 283 286 282 289 295 286 258 246 238 232
185 190 170 181 193 228 236 244 264 264 263 260 267 263 267 273 276 270 271 281 278 273 279 282 289 294 277 277 278 282 276 266 265 268 278 287 280 281 283 275 262 255 244
144 176 168 176 221 284 306 307 295 286 281 270 283 271 278 275 268 271 269 265 260 265 274 275 285 288 278 269 271 270 272 267 259 261 260 264 271 272 277 279 273 257 251
132 119 149 179 247 296 306 298 293 289 285 274 276 273 273 263 264 256 266 248 238 250 267 266 270 276 280 265 262 263 264 265 263 264 261 262 266 281 272 270 268 267 250
228 255 273 282 283 291 282 288 287 289 290 285 285 284 282 276 277 279 272 269 273 271 263 260 261 269 271 268 254 260 262 267 268 268 262 252 256 259 264 258 258 258 258
315 303 295 309 306 308 303 296 291 288 284 279 280 279 276 278 283 276 280 272 274 271 262 261 262 264 259 256 249 250 258 256 269 286 273 249 241 246 253 248 245 250 250
308 287 276 284 291 294 291 293 291 287 286 282 281 279 276 272 270 270 272 272 271 264 258 258 258 254 245 250 250 245 246 250 253 275 301 277 229 229 250 250 244 239 235
295 300 305 304 303 304 303 300 295 290 289 290 289 287 284 283 282 275 271 269 268 263 253 242 249 249 243 245 249 248 243 245 248 251 264 271 236 250 243 238 239 237 234
310 311 310 305 304 308 309 307 300 297 293 291 290 287 283 282 283 283 276 271 266 258 254 248 241 241 243 247 250 252 239 238 241 239 238 253 251 238 241 242 242 228 231
Wind_Speed_850mb
47 45 45 40 38 36 33 29 26 24 24 22 21 20 19 17 15 15 16 15 17 15 15 14 11 10 6 7 5 9 30 29 18 12 16 12 12 16 14 18 16 18 17
55 52 47 43 40 39 35 30 26 23 23 22 20 19 17 16 14 12 12 13 14 15 15 15 13 13 10 9 11 7 17 29 27 24 24 20 13 16 16 16 17 16 16
51 51 48 46 42 39 35 32 28 26 24 23 21 19 19 17 15 13 11 11 12 14 16 15 14 13 13 11 10 13 19 28 29 27 27 20 14 20 16 13 14 16 12
42 51 46 47 42 40 35 29 28 27 25 23 21 19 18 17 15 14 12 11 10 12 13 13 16 16 15 14 14 20 29 26 24 21 26 16 11 12 11 11 12 15 16
43 48 44 44 42 36 35 31 28 26 24 23 22 20 18 17 15 14 13 11 11 12 11 11 14 16 15 16 19 31 30 28 27 24 15 19 11 8 7 10 12 15 12
44 41 40 41 35 33 32 29 27 26 23 22 21 20 19 18 16 15 13 12 11 11 10 12 13 15 15 16 21 33 25 26 31 27 22 21 23 22 13 11 10 11 12
46 45 41 36 33 33 30 26 25 24 23 22 22 21 19 18 17 17 16 15 14 13 13 12 12 12 12 14 19 30 27 22 27 30 24 24 24 25 20 13 16 14 14
44 42 36 32 29 29 28 23 22 20 20 21 21 20 20 19 20 22 21 20 18 17 16 14 12 11 10 11 15 25 26 22 22 22 21 23 26 26 25 21 19 18 16
38 41 35 31 24 29 25 18 18 18 19 20 21 21 22 23 26 24 24 22 21 20 17 15 12 10 8 9 13 20 24 21 21 18 15 17 20 17 14 17 22 24 23
28 33 32 26 27 27 17 13 15 17 18 21 23 26 22 23 22 20 20 23 23 23 19 18 15 9 5 7 12 19 23 18 18 15 9 11 12 17 14 14 23 26 27
30 14 22 23 23 19 13 12 15 18 22 23 24 20 15 18 17 18 16 18 20 22 21 20 19 14 8 5 1 10 15 16 21 18 11 10 12 18 22 16 17 29 30
34 11 16 10 14 10 9 9 12 17 24 21 19 17 12 11 12 14 13 15 16 18 17 17 20 16 10 5 4 3 7 11 17 17 15 14 19 22 26 25 19 24 33
25 19 18 4 10 6 11 5 10 16 15 13 8 8 6 6 6 9 7 9 11 15 18 19 22 21 16 13 17 15 13 13 18 20 18 15 21 23 25 23 22 21 26
35 17 18 5 6 17 11 11 8 9 7 5 5 2 4 6 3 4 5 11 11 15 18 22 27 24 21 21 20 18 13 14 25 24 21 22 25 24 21 19 20 18 22
43 34 24 18 6 21 16 13 9 9 8 6 9 9 11 13 18 15 16 19 18 19 19 22 27 28 28 27 27 25 19 13 16 30 30 28 29 26 19 15 21 23 15
42 30 22 19 17 19 18 16 12 13 17 16 16 15 21 27 24 24 25 25 27 25 24 27 30 33 33 34 34 34 33 33 21 19 27 29 28 27 19 12 17 27 25
40 35 23 20 25 25 23 14 10 11 14 15 24 26 30 34 34 34 34 33 31 35 38 35 34 36 38 39 38 31 25 21 20 19 18 21 25 22 20 15 15 23 31
39 35 21 23 20 29 36 32 33 34 39 44 34 35 39 39 40 43 44 43 49 44 38 37 34 36 43 44 40 32 26 24 26 28 28 25 22 22 22 22 19 19 26
34 30 24 15 8 5 11 31 28 27 30 35 40 39 41 45 47 50 51 55 49 43 40 40 39 40 44 44 42 40 34 33 30 31 29 29 30 28 23 20 24 20 21
23 21 22 13 8 9 18 26 31 36 39 42 44 51 56 56 56 55 53 54 48 40 39 48 49 44 43 44 43 43 41 38 36 31 35 34 31 32 30 25 23 24 25
28 16 16 16 11 19 33 41 47 51 50 46 48 51 53 53 35 40 39 34 46 57 62 56 53 45 42 45 44 47 47 44 45 47 42 41 40 41 36 30 25 21 24
12 20 30 34 34 33 40 41 41 43 46 51 54 55 58 58 61 65 54 53 55 52 66 61 56 51 48 41 48 43 49 52 52 51 47 48 44 36 35 39 33 24 20
11 14 16 25 28 31 28 35 44 49 55 59 61 63 63 63 70 59 59 51 54 51 56 59 60 60 54 44 48 48 27 28 27 26 25 40 36 39 33 30 32 28 21
16 18 23 26 29 35 47 53 56 52 53 55 58 60 61 60 63 67 69 69 69 61 53 57 60 62 58 53 52 55 55 44 28 16 9 11 29 28 35 30 29 30 26
20 22 30 36 43 48 55 55 58 63 64 64 67 67 65 60 56 57 62 65 68 70 64 57 63 63 65 59 54 55 59 59 56 42 36 26 19 22 28 26 24 34 30
29 36 41 43 46 51 53 51 54 58 61 63 65 67 69 73 71 65 59 57 54 51 53 66 67 68 70 67 60 53 62 58 58 50 40 41 23 22 23 29 25 32 27
Wind_Direction_850mb
173 168 173 161 151 144 146 140 138 139 138 135 132 129 128 126 122 116 102 92 80 85 91 93 87 79 78 75 88 191 213 214 212 179 145 152 162 148 129 101 112 108 108
165 170 172 159 154 150 148 144 142 137 134 131 130 126 121 118 110 99 91 81 68 60 62 80 88 87 82 69 83 105 170 187 189 179 173 172 179 156 148 138 127 123 108
168 170 168 158 154 149 146 143 141 139 134 133 131 127 122 116 111 102 87 70 56 43 41 46 65 74 88 96 96 116 142 165 173 174 182 168 179 175 175 169 140 120 131
171 171 164 155 154 149 144 142 141 140 139 134 129 125 120 116 112 106 97 83 69 57 49 41 53 66 76 88 112 125 132 144 156 177 188 191 179 172 181 192 152 142 123
169 168 161 155 156 149 145 143 145 142 139 137 134 129 124 118 109 101 93 81 70 58 56 53 60 67 77 91 118 131 135 154 163 182 181 211 216 191 192 196 187 168 157
162 160 157 158 154 150 148 150 147 145 145 142 137 130 122 118 111 103 96 89 76 63 50 48 54 65 79 99 129 146 137 148 154 173 183 202 227 247 238 213 196 195 189
159 157 160 161 154 149 150 150 150 150 147 142 137 131 125 118 107 99 91 79 70 60 54 45 44 57 74 101 132 158 156 157 163 177 178 192 223 242 232 225 207 196 198
160 155 163 164 163 155 154 155 151 151 148 142 134 126 118 110 101 94 80 71 64 54 47 43 42 50 64 96 133 163 175 186 187 200 203 209 230 246 252 228 212 202 202
157 159 166 175 172 167 171 162 153 155 150 138 129 121 119 104 98 85 70 61 57 51 41 34 30 40 67 100 140 160 183 189 194 202 213 218 235 257 260 237 219 211 208
157 166 168 173 175 180 186 166 162 156 143 137 132 118 117 110 103 76 68 61 54 39 32 30 27 35 45 102 149 156 183 187 194 203 218 239 248 276 267 256 227 217 214
153 163 181 182 190 183 186 191 173 158 145 134 132 130 117 108 98 70 62 58 47 41 43 34 23 14 21 32 171 184 179 190 196 201 218 258 263 279 293 273 245 226 220
157 162 175 177 209 220 216 199 175 158 144 128 133 133 121 91 82 65 46 37 34 27 32 22 13 356 359 353 2 294 225 238 217 217 226 256 266 272 284 287 258 230 223
158 164 145 334 181 158 114 129 154 148 159 156 135 134 103 59 63 55 21 6 9 1 2 0 358 346 332 317 332 317 265 250 237 241 237 251 264 266 274 280 265 238 223
178 185 161 178 195 156 137 106 131 151 166 178 203 196 13 312 282 299 314 325 331 336 337 337 335 335 322 318 323 305 290 262 239 245 253 260 272 282 287 268 242 240 225
181 176 178 191 217 189 165 163 203 221 225 255 273 281 299 290 284 294 304 302 302 310 314 316 315 315 313 311 307 306 301 293 269 259 263 264 270 282 292 267 233 236 234
180 180 173 183 181 181 176 204 234 240 235 238 262 271 285 284 287 295 299 295 298 299 302 306 304 301 301 300 298 295 293 294 292 279 269 271 275 278 274 265 241 226 232
191 176 163 188 192 195 188 173 195 225 245 244 267 272 274 280 288 288 286 289 294 296 298 300 297 284 285 288 287 285 272 269 281 288 289 283 282 287 275 252 235 233 229
187 182 177 193 189 212 211 222 225 235 248 252 250 263 264 271 277 282 279 282 293 284 278 287 301 280 278 282 283 283 269 267 276 283 286 282 289 295 286 258 246 238 232
185 190 170 181 193 228 236 244 264 264 263 260 267 263 267 273 276 270 271 281 278 273 279 282 289 294 277 277 278 282 276 266 265 268 278 287 280 281 283 275 262 255 244
144 176 168 176 221 284 306 307 295 286 281 270 283 271 278 275 268 271 269 265 260 265 274 275 285 288 278 269 271 270 272 267 259 261 260 264 271 272 277 279 273 257 251
132 119 149 179 247 296 306 298 293 289 285 274 276 273 273 263 264 256 266 248 238 250 267 266 270 276 280 265 262 263 264 265 263 264 261 262 266 281 272 270 268 267 250
228 255 273 282 283 291 282 288 287 289 290 285 285 284 282 276 277 279 272 269 273 271 263 260 261 269 271 268 254 260 262 267 268 268 262 252 256 259 264 258 258 258 258
315 303 295 309 306 308 303 296 291 288 284 279 280 279 276 278 283 276 280 272 274 271 262 261 262 264 259 256 249 250 258 256 269 286 273 249 241 246 253 248 245 250 250
308 287 276 284 291 294 291 293 291 287 286 282 281 279 276 272 270 270 272 272 271 264 258 258 258 254 245 250 250 245 246 250 253 275 301 277 229 229 250 250 244 239 235
295 300 305 304 303 304 303 300 295 290 289 290 289 287 284 283 282 275 271 269 268 263 253 242 249 249 243 245 249 248 243 245 248 251 264 271 236 250 243 238 239 237 234
310 311 310 305 304 308 309 307 300 297 293 291 290 287 283 282 283 283 276 271 266 258 254 248 241 241 243 247 250 252 239 238 241 239 238 253 251 238 241 242 242 228 231